Location: Newark
(55.8372°N, 37.1596°E)
Time: 12:32:44
(UTC+00:00)

ISS - Visible Passes

Search period start: 22 September 2019 00:00
Search period end: 02 October 2019 00:00
Orbit: 411 x 421 km, 51.6° (Epoch: 22 September)

Date Brightness Start Highest point End Pass type
(mag) Time Alt. Az. Time Alt. Az. Time Alt. Az.
22 Sep -1.6 16:18:16 10° SSE 16:19:36 12° SE 16:20:57 10° ESE visible
22 Sep -1.8 17:52:39 10° SW 17:54:00 20° SSW 17:54:00 20° SSW visible
23 Sep -2.6 17:04:28 10° SW 17:07:16 25° SSE 17:07:36 25° SSE visible
23 Sep -0.8 18:40:25 10° WSW 18:40:31 11° WSW 18:40:31 11° WSW visible
24 Sep -2.1 16:16:26 10° SSW 16:18:56 20° SSE 16:21:06 12° ESE visible
24 Sep -2.3 17:52:02 10° WSW 17:54:00 28° SW 17:54:00 28° SW visible
25 Sep -3.0 17:03:42 10° SW 17:06:45 34° SSE 17:07:25 31° SE visible
25 Sep -0.8 18:40:01 10° WSW 18:40:18 12° WSW 18:40:18 12° WSW visible
26 Sep -2.6 16:15:25 10° SW 16:18:22 29° SSE 16:20:46 13° ESE visible
26 Sep -2.4 17:51:33 10° WSW 17:53:39 30° SW 17:53:39 30° SW visible
27 Sep -3.1 17:03:06 10° WSW 17:06:15 40° S 17:06:58 34° SE visible
27 Sep -0.7 18:39:38 10° W 18:39:51 11° WSW 18:39:51 11° WSW visible
28 Sep -2.9 16:14:41 10° WSW 16:17:48 38° S 16:20:14 15° ESE visible
28 Sep -2.1 17:51:06 10° W 17:53:07 27° SW 17:53:07 27° SW visible
29 Sep -3.0 17:02:35 10° WSW 17:05:43 38° S 17:06:22 34° SSE visible
30 Sep -3.0 16:14:06 10° WSW 16:17:15 40° S 16:19:37 16° ESE visible
30 Sep -1.7 17:50:45 10° WSW 17:52:30 21° SW 17:52:30 21° SW visible
01 Oct -2.5 17:02:08 10° W 17:05:06 30° SSW 17:05:45 27° S visible
